Weather observations for the past three days for
Versailles Darke County Airport
Imperial (Metric)
Date Time (edt) Wind (mph) Vis. (mi.) Weather Sky Cond. Temperature (ºF) Relative Humidity Wind Chill (°F) Heat Index (°F) Pressure Precipitation (in)
Air Dwpt 6 hour altimeter (in) sea level (mb) 1 hr 3 hr 6 hr
Max. Min.
16 10:50 W 8 7.00 Fair CLR 78.8 64.4 61% 81 29.88 0.0
16 10:30 W 9 10.00 Fair CLR 78.8 64.4 61% 81 29.87 0.0
16 10:10 Calm 10.00 Fair CLR 77 64.4 65% 79 29.87 0.0
16 09:50 Calm 10.00 Fair CLR 75.2 64.4 69% 77 29.87 0.0
16 09:30 W 6 10.00 Fair CLR 73.4 64.4 74% 29.87 0.0
16 09:10 W 7 10.00 Fair CLR 73.4 64.4 74% 29.86 0.0
16 08:50 W 7 10.00 Fair CLR 71.6 64.4 78% 29.85 0.0
16 08:30 W 8 10.00 Fair CLR 71.6 64.4 78% 29.84 0.0
16 08:10 W 9 10.00 Fair CLR 69.8 64.4 83% 29.83 0.0
16 07:50 W 13 G 18 10.00 Fair CLR 71.6 62.6 73% 29.83 0.0
16 07:30 W 10 10.00 Fair CLR 71.6 62.6 73% 29.82 0.0
16 07:10 W 12 G 20 5.00 Fair CLR 71.6 62.6 73% 29.82 0.0
16 06:50 W 12 7.00 Fair CLR 69.8 62.6 78% 29.81 0.0
16 06:30 W 15 G 25 10.00 Partly Cloudy SCT110 71.6 62.6 73% 29.81 0.0
16 06:10 W 23 G 39 10.00 Partly Cloudy and Breezy SCT085 SCT120 71.6 62.6 73% 29.8 0.0
16 05:50 W 23 G 35 10.00 Partly Cloudy and Breezy SCT075 SCT085 SCT120 71.6 62.6 73% 29.78 0.0
16 05:30 W 17 G 23 10.00 Partly Cloudy SCT120 73.4 60.8 65% 29.78 0.0
16 05:10 W 17 G 23 10.00 Fair CLR 73.4 60.8 65% 29.77 0.0
16 04:50 W 10 G 21 10.00 Partly Cloudy SCT120 73.4 60.8 65% 29.76 0.0 0.01
16 04:30 SW 12 G 22 10.00 Partly Cloudy SCT100 SCT120 73.4 59 61% 29.72 0.0 0.01
16 04:10 W 13 G 21 10.00 Mostly Cloudy SCT050 SCT065 BKN100 69.8 62.6 78% 29.75 0.0
16 03:50 W 13 G 23 10.00 Partly Cloudy SCT050 SCT065 SCT075 71.6 62.6 73% 29.8 0.0
16 03:30 W 20 G 30 10.00 Partly Cloudy SCT110 73.4 62.6 69% 29.83 0.0
16 03:10 W 13 G 21 10.00 Partly Cloudy SCT100 73.4 62.6 69% 29.86 0.0
16 02:50 W 15 G 23 10.00 Fair CLR 73.4 62.6 69% 29.87 0.0
16 02:30 W 15 G 28 7.00 Fair CLR 77 62.6 61% 79 29.87 0.0
16 02:10 W 25 G 39 7.00 Partly Cloudy and Breezy SCT027 SCT075 SCT090 78.8 69.8 74% 81 29.87 0.0
16 01:50 SW 18 7.00 Partly Cloudy SCT075 77 71.6 83% 78 29.86 0.0
16 01:30 SW 15 G 22 7.00 Fair CLR 77 71.6 83% 78 29.85 0.0
16 01:10 SW 15 G 21 10.00 Fair CLR 77 71.6 83% 78 29.83 0.0
16 00:50 SW 10 G 23 7.00 Fair CLR 77 71.6 83% 78 29.83 0.0
16 00:30 SW 12 G 18 10.00 Fair CLR 77 71.6 83% 78 29.84 0.0
16 00:10 SW 13 G 20 10.00 Fair CLR 77 69.8 79% 79 29.84 0.0
15 23:50 SW 12 7.00 Fair CLR 77 69.8 79% 79 29.85 0.0 0.01
15 23:30 SW 9 10.00 Fair CLR 75.2 69.8 83% 75 29.85 0.0 0.01
15 23:10 SW 9 7.00 Fair CLR 73.4 68 83% 29.85 0.0
15 22:50 SW 6 7.00 Fair CLR 73.4 68 83% 29.84 0.0
15 22:30 S 3 10.00 Fair CLR 75.2 68 78% 76 29.85 0.0
15 22:10 SW 5 10.00 Fair CLR 75.2 69.8 83% 75 29.85 0.0
15 21:50 SW 3 10.00 Fair CLR 75.2 69.8 83% 75 29.84 0.0
15 21:30 SW 5 10.00 Fair CLR 77 68 74% 79 29.83 0.0
15 21:10 SW 6 7.00 Partly Cloudy SCT036 SCT043 SCT048 77 68 74% 79 29.83 0.0
15 20:50 SW 6 10.00 Mostly Cloudy BKN036 BKN043 BKN048 78.8 66.2 65% 81 29.84 0.0 0.01
15 20:30 SW 5 10.00 Partly Cloudy SCT036 SCT048 78.8 66.2 65% 81 29.85 0.0
15 20:10 SW 8 10.00 Fair CLR 80.6 64.4 58% 82 29.85 0.0
15 19:50 SW 5 10.00 Fair CLR 80.6 64.4 58% 82 29.85 0.0
15 19:30 SW 6 10.00 Fair CLR 80.6 64.4 58% 82 29.85 0.0
15 19:10 SW 6 10.00 Fair CLR 80.6 64.4 58% 82 29.85 0.0
15 18:50 SW 9 7.00 Fair CLR 80.6 64.4 58% 82 29.86 0.0
15 18:30 SW 7 7.00 Fair CLR 82.4 66.2 58% 85 29.87 0.0
15 18:10 SW 5 10.00 Fair CLR 82.4 68 62% 85 29.87 0.0
15 17:50 SW 8 G 18 10.00 Partly Cloudy SCT034 SCT045 SCT060 82.4 69.8 66% 86 29.88 0.0
15 17:30 SW 12 G 16 10.00 Partly Cloudy SCT046 SCT055 SCT090 86 71.6 62% 92 29.87 0.0
15 17:10 SW 14 G 23 7.00 Mostly Cloudy SCT028 SCT034 BKN045 82.4 71.6 70% 87 29.88 0.0
15 16:50 SW 10 7.00 Mostly Cloudy BKN030 BKN039 BKN045 86 71.6 62% 92 29.87 0.0
15 16:30 SW 7 7.00 Mostly Cloudy SCT028 BKN034 BKN046 86 71.6 62% 92 29.88 0.0
15 16:10 W 10 7.00 Partly Cloudy SCT032 SCT040 87.8 71.6 59% 94 29.88 0.0
15 15:50 SW 7 7.00 Mostly Cloudy SCT031 BKN040 BKN046 87.8 71.6 59% 94 29.89 0.0
15 15:30 W 9 G 17 7.00 Mostly Cloudy BKN031 BKN038 87.8 71.6 59% 94 29.9 0.0
15 15:10 SW 7 10.00 Mostly Cloudy BKN031 BKN038 86 71.6 62% 92 29.91 0.0
15 14:50 SW 12 7.00 Partly Cloudy SCT029 SCT038 SCT046 86 71.6 62% 92 29.92 0.0 0.01
15 14:30 W 9 7.00 Partly Cloudy SCT029 SCT034 SCT046 86 69.8 59% 91 29.93 0.0
15 14:10 SW 10 7.00 Partly Cloudy SCT048 86 69.8 59% 91 29.94 0.0
15 13:50 W 12 G 17 7.00 Partly Cloudy SCT033 SCT048 86 68 55% 89 29.95 0.0 0.01
15 13:30 SW 10 10.00 Partly Cloudy SCT048 SCT060 SCT070 84.2 68 58% 87 29.95 0.0 0.01
15 13:10 SW 7 7.00 Mostly Cloudy BKN048 BKN055 82.4 66.2 58% 85 29.95 0.0 0.01
15 12:50 W 8 7.00 Overcast OVC048 82.4 62.6 51% 83 29.95 0.0 0.01
15 12:30 SW 8 7.00 Mostly Cloudy BKN050 86 64.4 49% 87 29.95 0.0 0.01
15 12:10 W 6 7.00 Partly Cloudy SCT050 82.4 62.6 51% 83 29.95 0.0 0.01
15 11:50 W 6 5.00 Partly Cloudy SCT050 82.4 62.6 51% 83 29.95 0.0
15 11:30 W 14 G 18 7.00 Fair CLR 82.4 60.8 48% 83 29.96 0.0
15 11:10 W 13 G 17 7.00 Fair CLR 80.6 62.6 54% 82 29.96 0.0
15 10:50 W 8 10.00 Fair CLR 80.6 64.4 58% 82 29.95 0.0
15 10:30 W 9 7.00 Fair CLR 78.8 64.4 61% 81 29.95 0.0
15 10:10 SW 9 10.00 Fair CLR 77 64.4 65% 79 29.96 0.0
15 09:50 W 9 7.00 Fair CLR 77 64.4 65% 79 29.95 0.0
15 09:30 SW 7 10.00 Fair CLR 77 64.4 65% 79 29.95 0.0
15 09:10 SW 3 10.00 Fair CLR 75.2 64.4 69% 77 29.94 0.0
15 08:50 SW 8 10.00 Fair CLR 75.2 64.4 69% 77 29.94 0.0
15 08:30 Calm 10.00 Fair CLR 71.6 64.4 78% 29.92 0.0
15 08:10 SW 8 10.00 Fair CLR 71.6 64.4 78% 29.94 0.0
15 07:50 SW 7 10.00 Fair CLR 69.8 64.4 83% 29.93 0.0 0.01
15 07:30 SW 6 10.00 Fair CLR 69.8 64.4 83% 29.94 0.0
15 07:10 W 10 10.00 Fair CLR 69.8 64.4 83% 29.96 0.0
15 06:50 W 7 10.00 Fair CLR 71.6 64.4 78% 29.95 0.0
15 06:30 W 12 G 20 10.00 Fair CLR 71.6 64.4 78% 29.97 0.0
15 06:10 NW 10 G 26 10.00 Mostly Cloudy SCT020 BKN025 BKN034 73.4 66.2 78% 29.98 0.0
15 05:50 W 12 G 16 10.00 Mostly Cloudy BKN023 BKN035 BKN120 73.4 73.4 100% 29.97 0.0 0.01
15 05:30 W 10 10.00 Partly Cloudy SCT120 73.4 73.4 100% 29.95 0.0 0.01
15 05:10 SW 9 10.00 Partly Cloudy SCT120 73.4 73.4 100% 29.94 0.0 0.01
15 04:50 SW 6 10.00 Fair CLR 73.4 73.4 100% 29.94 0.0
15 04:30 SW 5 10.00 Fair CLR 73.4 73.4 100% 29.94 0.0
15 04:10 SW 6 10.00 Fair CLR 73.4 73.4 100% 29.93 0.0
15 03:50 SW 6 10.00 Fair CLR 73.4 73.4 100% 29.93 0.0 0.01
15 03:30 SW 6 10.00 Fair CLR 73.4 73.4 100% 29.94 0.0 0.01
15 03:10 SW 8 10.00 Fair CLR 73.4 73.4 100% 29.95 0.0 0.01
15 02:50 SW 9 10.00 Fair CLR 73.4 73.4 100% 29.95 0.0
15 02:30 SW 8 10.00 Fair CLR 73.4 73.4 100% 29.95 0.0
15 02:10 SW 7 10.00 Fair CLR 73.4 73.4 100% 29.95 0.0
15 01:50 SW 8 10.00 Fair CLR 73.4 73.4 100% 29.97 0.0
15 01:30 SW 7 10.00 Fair CLR 73.4 73.4 100% 29.97 0.0
15 01:10 SW 7 10.00 Fair CLR 73.4 73.4 100% 29.98 0.0
15 00:50 W 6 10.00 Fair CLR 73.4 73.4 100% 29.99 0.0
15 00:30 SW 6 10.00 Partly Cloudy SCT120 71.6 71.6 100% 29.98 0.0
15 00:10 SW 7 10.00 Fair CLR 71.6 71.6 100% 29.97 0.0
14 23:50 SW 7 10.00 Fair CLR 71.6 71.6 100% 29.97 0.0 0.01
14 23:30 SW 7 10.00 Fair CLR 0 0 0% 29.97 0.0
14 23:10 SW 7 10.00 Fair CLR 0 0 0% 29.97 0.0
14 22:50 SW 7 10.00 Fair CLR 0 0 0% 29.98 0.0
14 22:30 SW 7 10.00 Fair CLR 69.8 69.8 100% 29.98 0.0
14 22:10 S 3 10.00 Fair CLR 69.8 69.8 100% 29.99 0.0
14 21:50 Calm 10.00 Fair CLR 71.6 71.6 100% 29.99 0.0
14 21:30 S 3 10.00 Fair CLR 71.6 71.6 100% 29.99 0.0
14 21:10 Calm 10.00 Fair CLR 71.6 69.8 94% 29.99 0.0
14 20:50 SW 5 10.00 Fair CLR 71.6 71.6 100% 29.99 0.0
14 20:30 SW 5 10.00 Fair CLR 71.6 69.8 94% 30 0.0
14 20:10 SW 3 10.00 Fair CLR 73.4 69.8 89% 30.01 0.0
14 19:50 SW 7 0.00 NULL NULL 0 0 0% 30.01 0.0
14 14:10 W 20 G 39 7.00 Mostly Cloudy BKN032 BKN044 BKN055 84.2 71.6 66% 90 30.07 0.0
14 13:50 SW 12 G 18 7.00 Mostly Cloudy BKN030 BKN044 BKN050 86 71.6 62% 92 30.04 0.0
14 13:30 SW 14 G 22 7.00 Mostly Cloudy SCT032 SCT041 BKN050 84.2 69.8 62% 88 30.05 0.0
14 13:10 SW 15 7.00 Partly Cloudy SCT030 SCT037 SCT042 86 71.6 62% 92 30.05 0.0
14 12:50 SW 13 G 18 7.00 Partly Cloudy SCT028 SCT033 SCT039 86 71.6 62% 92 30.06 0.0
14 12:30 W 12 G 17 7.00 Partly Cloudy SCT027 SCT032 84.2 71.6 66% 90 30.07 0.0
14 12:10 SW 9 10.00 Mostly Cloudy BKN024 BKN033 82.4 71.6 70% 87 30.08 0.0
14 11:50 SW 12 G 17 7.00 Partly Cloudy SCT022 SCT030 82.4 71.6 70% 87 30.09 0.0
14 11:30 W 13 G 16 7.00 Partly Cloudy SCT020 SCT025 82.4 71.6 70% 87 30.09 0.0
14 11:10 SW 10 7.00 Partly Cloudy SCT018 SCT025 80.6 71.6 74% 85 30.1 0.0
14 10:50 SW 10 7.00 Partly Cloudy SCT018 80.6 71.6 74% 85 30.09 0.0
14 10:30 SW 6 5.00 Partly Cloudy SCT090 78.8 71.6 79% 82 30.1 0.0
14 10:10 SW 7 5.00 Partly Cloudy SCT030 SCT037 SCT090 77 71.6 83% 78 30.1 0.0
14 09:50 SW 6 7.00 Partly Cloudy SCT030 SCT035 77 73.4 89% 78 30.11 0.0
14 09:30 SW 5 5.00 Fair CLR 73.4 73.4 100% 30.12 0.0
14 09:10 W 8 5.00 Fair CLR 73.4 73.4 100% 30.12 0.0
14 08:50 SW 5 7.00 Fair CLR 71.6 71.6 100% 30.11 0.0
14 08:30 S 3 7.00 Fair CLR 71.6 71.6 100% 30.11 0.0
14 08:10 Calm 5.00 Partly Cloudy SCT018 69.8 69.8 100% 30.11 0.0
14 07:50 Calm 5.00 Partly Cloudy SCT018 0 0 0% 30.11 0.0
14 07:30 Calm 5.00 Partly Cloudy SCT018 0 0 0% 30.11 0.0
14 07:10 Calm 5.00 Fair CLR 0 0 0% 30.1 0.0
14 06:50 SW 3 5.00 Fair CLR 0 0 0% 30.11 0.0
14 06:30 SW 3 5.00 Fair CLR 68 68 100% 30.11 0.0
14 06:10 S 3 7.00 Fair CLR 68 68 100% 30.12 0.0
14 05:50 SW 3 7.00 Fair CLR 68 68 100% 30.12 0.0
14 05:30 Calm 7.00 Fair CLR 68 68 100% 30.12 0.0
14 05:10 Calm 7.00 Fair CLR 68 68 100% 30.11 0.0
14 04:50 SW 3 7.00 Fair CLR 68 68 100% 30.1 0.0
14 04:30 SW 3 10.00 Fair CLR 68 68 100% 30.1 0.0
14 04:10 Calm 10.00 Fair CLR 68 66.2 94% 30.11 0.0
14 03:50 SW 3 7.00 Fair CLR 68 68 100% 30.11 0.0
14 03:30 Calm 7.00 Fair CLR 68 66.2 94% 30.12 0.0
14 03:10 Calm 7.00 Fair CLR 69.8 68 94% 30.12 0.0
14 02:50 Calm 5.00 Fair CLR 69.8 68 94% 30.12 0.0
14 02:30 Calm 7.00 Fair CLR 69.8 66.2 88% 30.12 0.0
14 02:10 S 3 7.00 Fair CLR 69.8 69.8 100% 30.11 0.0
14 01:50 Calm 7.00 Fair CLR 69.8 69.8 100% 30.12 0.0
14 01:30 Calm 7.00 Fair CLR 69.8 69.8 100% 30.14 0.0
14 01:10 Calm 7.00 Fair CLR 69.8 69.8 100% 30.15 0.0
14 00:50 Calm 7.00 Fair CLR 69.8 69.8 100% 30.15 0.0
14 00:30 Calm 7.00 Fair CLR 69.8 69.8 100% 30.16 0.0
13 23:50 Calm 7.00 Fair CLR 69.8 69.8 100% 30.16 0.0
13 23:30 Calm 5.00 Fair CLR 69.8 69.8 100% 30.15 0.0
13 23:10 Calm 7.00 Fair CLR 71.6 71.6 100% 30.15 0.0
13 22:50 Calm 7.00 Fair CLR 71.6 71.6 100% 30.14 0.0
13 22:30 Calm 7.00 Fair CLR 71.6 71.6 100% 30.15 0.0
13 22:10 Calm 7.00 Fair CLR 71.6 69.8 94% 30.15 0.0
13 21:30 Calm 7.00 Fair CLR 75.2 69.8 83% 75 30.14 0.0
13 21:10 Calm 7.00 Fair CLR 77 69.8 79% 79 30.15 0.0
13 20:50 Calm 7.00 Fair CLR 78.8 69.8 74% 81 30.15 0.0
13 20:30 Calm 10.00 Fair CLR 78.8 69.8 74% 81 30.16 0.0
13 20:10 Calm 7.00 Fair CLR 80.6 68 66% 83 30.16 0.0
13 19:50 NW 3 7.00 Fair CLR 80.6 66.2 62% 83 30.16 0.0
13 19:30 NW 3 7.00 Fair CLR 82.4 64.4 55% 84 30.16 0.0
13 19:10 Calm 10.00 Fair CLR 82.4 64.4 55% 84 30.16 0.0
13 18:50 NW 3 10.00 Fair CLR 82.4 64.4 55% 84 30.16 0.0
13 18:30 NW 5 7.00 Fair CLR 84.2 62.6 48% 85 30.16 0.0
13 18:10 W 5 10.00 Fair CLR 84.2 64.4 51% 86 30.16 0.0
13 17:50 NW 5 7.00 Fair CLR 86 62.6 46% 87 30.16 0.0
13 17:30 W 7 7.00 Fair CLR 86 62.6 46% 87 30.17 0.0
13 17:10 W 6 7.00 Fair CLR 86 62.6 46% 87 30.17 0.0
13 16:50 W 5 10.00 Fair CLR 86 62.6 46% 87 30.17 0.0
13 16:30 SW 7 7.00 Fair CLR 86 62.6 46% 87 30.17 0.0
13 16:10 W 6 10.00 Partly Cloudy SCT045 86 62.6 46% 87 30.17 0.0
13 15:50 NW 6 7.00 Partly Cloudy SCT043 86 64.4 49% 87 30.18 0.0
13 15:30 W 3 7.00 Partly Cloudy SCT043 86 64.4 49% 87 30.18 0.0
13 15:10 W 8 7.00 Partly Cloudy SCT043 86 64.4 49% 87 30.18 0.0
13 14:50 Calm 10.00 Partly Cloudy SCT043 86 62.6 46% 87 30.18 0.0
13 14:30 SW 8 7.00 Partly Cloudy SCT039 SCT048 84.2 62.6 48% 85 30.19 0.0
13 14:10 NW 5 7.00 Partly Cloudy SCT037 SCT046 SCT050 82.4 66.2 58% 85 30.2 0.0
13 13:50 NW 5 7.00 Mostly Cloudy SCT040 BKN046 BKN050 82.4 64.4 55% 84 30.19 0.0
13 13:30 NW 5 7.00 Mostly Cloudy BKN038 84.2 66.2 55% 87 30.2 0.0
13 13:10 Calm 7.00 Partly Cloudy SCT037 SCT047 84.2 62.6 48% 85 30.2 0.0
13 12:50 W 3 7.00 Partly Cloudy SCT042 82.4 66.2 58% 85 30.19 0.0
13 12:30 Calm 7.00 Partly Cloudy SCT035 SCT040 SCT046 82.4 64.4 55% 84 30.2 0.0
13 12:10 Calm 7.00 Partly Cloudy SCT038 82.4 68 62% 85 30.2 0.0
13 11:50 Calm 10.00 Fair CLR 82.4 64.4 55% 84 30.2 0.0
13 11:30 Calm 7.00 Partly Cloudy SCT035 80.6 64.4 58% 82 30.2 0.0
Date Time (edt) Wind (mph) Vis. (mi.) Weather Sky Cond. Air Dwpt Max. Min. Relative Humidity Wind Chill (°F) Heat Index (°F) altimeter (in) sea level (mb) 1 hr 3 hr 6 hr
6 hour
Temperature (ºF) Pressure Precipitation (in)